SCP
1 1 1 1 1 1 1 1 1 1 1 1 1 1 1 1 1 1 1 1 1 1 1 1 1 1 0 0 0 0 0 1 0 0 1 1 1 0 0 0 0 0 0
1 1 1 1 1 1 1 1 1 1 1 1 1 1 1 1 1 1 1 1 1 1 1 1 1 1 1 0 1 1 1 1 1 0 1 1 1 0 0 0 0 0 0
1 1 1 1 1 1 1 1 1 1 1 1 1 1 1 1 1 1 1 1 1 1 1 1 1 1 1 1 1 1 1 1 1 0 1 1 1 1 1 1 1 0 0
1 1 1 1 1 1 1 1 1 1 1 1 1 1 1 1 1 1 1 1 1 1 1 1 1 1 1 1 1 1 1 1 1 1 1 1 1 1 1 1 1 1 0
1 1 1 1 1 1 1 1 1 1 1 1 1 1 1 1 1 1 1 1 1 1 1 1 1 1 1 1 1 1 1 1 1 1 1 1 1 1 1 1 1 1 1
0 1 1 0 0 1 1 1 1 1 1 1 1 1 1 1 1 1 1 1 1 1 1 1 1 1 1 1 1 1 1 1 1 1 1 1 1 1 1 1 1 1 1
0 0 0 0 0 1 1 1 1 1 1 1 1 1 1 1 1 1 1 1 1 1 1 1 1 1 1 1 1 1 1 1 1 1 1 1 1 1 1 1 1 1 1
0 0 0 0 0 0 0 0 1 1 1 1 1 1 1 1 1 1 1 1 1 1 1 1 1 1 1 1 1 1 1 1 1 1 1 1 1 1 1 1 1 1 1
0 0 0 0 0 0 0 0 0 1 1 1 1 1 0 1 1 1 1 1 1 1 1 1 1 1 1 1 1 1 1 1 1 1 1 1 1 1 1 1 1 1 1
0 0 0 0 0 0 0 0 0 0 1 1 0 0 0 0 0 1 1 1 1 1 1 1 1 1 1 1 1 1 1 1 1 1 1 1 1 1 1 1 1 1 1
0 0 0 0 0 0 0 0 0 0 0 0 0 0 0 0 0 0 1 1 1 1 1 1 1 1 1 1 1 1 1 1 1 1 1 1 1 1 1 1 1 1 1
0 0 0 0 0 0 0 0 0 0 0 0 0 0 0 0 0 0 1 1 1 1 1 1 1 1 1 1 1 1 1 1 1 1 1 1 1 1 1 1 1 1 1
0 0 0 0 0 0 0 0 0 0 0 0 0 0 0 0 0 0 1 1 1 1 1 1 1 1 1 1 1 1 1 1 1 1 1 1 1 1 1 1 1 1 1
0 0 0 0 0 0 0 0 0 0 0 0 0 0 0 0 0 0 1 1 1 1 1 1 1 1 1 1 1 1 1 1 1 1 1 1 1 1 1 1 1 1 1
0 0 0 0 0 0 0 0 0 0 0 0 0 0 0 0 0 0 0 1 1 1 1 1 1 1 1 1 1 1 1 1 0 0 0 0 1 1 1 1 1 1 1
0 0 0 0 0 0 0 0 0 0 1 1 0 0 0 1 0 0 0 0 1 1 1 1 1 1 1 1 1 1 0 0 0 0 0 0 0 0 1 1 1 1 1
0 0 0 0 0 0 0 0 0 0 0 0 0 0 0 0 0 0 0 0 0 1 1 1 1 0 0 0 1 1 0 0 0 0 0 0 0 0 0 0 0 0 1
0 0 0 0 0 0 0 0 0 0 0 0 0 0 0 0 0 0 0 0 0 0 1 0 0 0 0 0 0 0 0 0 0 0 0 0 0 0 0 0 0 0 0
0 0 0 0 0 0 0 0 0 0 0 0 0 0 0 0 0 0 0 0 0 0 0 0 0 0 0 0 0 0 0 0 0 0 0 0 0 0 0 0 0 0 0
0 0 0 0 0 0 0 0 0 0 0 0 0 0 0 0 0 0 0 0 0 0 0 0 0 0 0 0 0 0 0 0 0 0 0 0 0 0 0 0 0 0 0
0 0 0 0 0 0 0 0 0 0 0 0 0 0 0 0 0 0 0 0 0 0 0 0 0 0 0 0 0 0 0 0 0 0 0 0 0 0 0 0 0 0 0
0 0 0 0 0 0 0 0 0 0 0 0 0 0 0 0 0 0 0 0 0 0 0 0 0 0 0 0 0 0 0 0 0 0 0 1 1 0 0 0 0 0 0
0 0 0 0 0 0 0 0 0 0 0 0 0 0 0 0 0 0 0 0 0 0 0 0 0 0 0 0 0 0 0 0 0 0 0 0 0 0 0 1 0 0 0
0 0 0 0 0 0 0 0 0 0 0 0 0 0 0 0 0 0 0 0 0 0 0 0 0 0 0 0 0 0 0 0 0 0 0 0 0 0 0 1 0 0 0
0 0 0 0 0 0 0 0 0 0 0 0 0 0 0 0 0 0 0 0 0 0 0 0 0 0 0 0 0 0 0 0 0 0 0 0 0 0 0 0 0 0 0
0 0 0 0 0 0 0 0 0 0 0 0 0 0 0 0 0 0 0 0 0 0 0 0 0 0 0 0 0 0 0 0 0 0 0 0 0 0 0 0 0 0 0
Wind_Speed
2 2 2 1 2 2 2 3 3 4 3 3 3 4 4 4 3 2 4 9 10 10 9 8 8 8 8 8 8 8 9 9 9 9 9 8 8 8 8 8 8 8 8
2 2 3 2 2 2 2 2 3 2 3 2 3 3 3 3 3 3 4 6 9 10 9 9 9 9 9 9 9 9 9 9 9 10 9 9 8 9 9 8 8 8 8
3 2 2 2 2 2 2 1 2 1 2 3 3 4 3 3 3 3 4 5 6 9 10 10 10 9 9 10 10 10 10 10 10 10 10 10 9 9 9 9 9 8 8
3 2 2 2 3 2 2 1 1 1 1 2 2 3 3 3 4 4 3 4 5 6 8 11 10 10 10 10 10 11 10 10 10 10 10 10 10 10 10 9 9 9 8
4 3 2 2 3 2 2 3 1 1 1 2 2 3 3 2 3 4 4 4 5 6 6 9 11 10 10 10 10 11 11 11 11 11 10 10 10 11 10 10 9 9 9
4 4 3 3 2 2 2 2 2 2 1 2 3 3 2 3 2 3 3 2 2 4 5 7 6 7 11 11 11 11 12 13 12 12 11 11 11 11 11 11 10 10 9
3 3 3 3 2 2 2 2 1 2 2 1 1 2 2 3 2 3 2 2 2 3 3 5 5 5 5 11 11 11 13 13 13 13 13 13 12 12 12 11 11 11 10
3 4 3 2 2 2 2 2 1 1 1 1 1 0 1 1 2 3 2 2 2 1 3 5 5 6 6 5 8 12 12 12 14 14 13 13 13 13 13 12 12 12 11
2 2 4 3 3 2 1 2 1 1 1 1 0 1 0 1 1 2 2 2 2 1 2 2 4 5 6 6 7 10 12 11 12 14 14 13 13 13 13 13 13 13 12
2 2 3 3 3 1 1 2 1 1 0 1 1 1 1 0 1 1 2 2 2 2 2 2 1 1 2 4 7 10 12 12 11 13 14 14 14 14 14 14 14 13 13
1 2 3 3 3 2 1 1 1 1 0 0 1 1 1 1 1 0 1 1 1 1 1 1 1 0 0 2 4 8 12 11 10 11 12 13 14 15 15 15 14 14 14
1 2 2 3 2 2 2 2 1 1 0 0 1 1 0 0 0 0 0 1 1 1 1 1 1 1 1 1 2 7 11 11 10 10 10 10 11 13 15 15 15 15 15
2 2 3 3 2 2 2 1 1 1 0 0 0 0 0 1 0 0 0 0 1 1 1 1 1 1 1 2 2 5 8 9 9 9 8 9 9 10 11 14 15 15 15
1 2 2 2 2 2 3 2 1 1 0 0 1 0 0 0 0 1 0 0 1 1 1 1 1 1 1 2 3 4 4 8 8 8 8 8 8 8 9 10 12 13 14
2 3 3 2 1 1 1 2 1 2 1 1 1 1 0 0 0 0 0 1 1 0 1 1 2 2 1 1 2 2 2 5 7 8 8 8 8 8 8 9 9 9 10
2 2 3 2 2 1 1 1 1 1 1 1 0 0 1 0 0 0 0 0 1 1 0 1 1 1 1 1 2 1 1 5 8 9 9 8 8 8 8 9 9 10 10
1 2 2 2 2 2 2 2 1 1 2 2 1 1 1 0 0 0 0 0 0 1 1 1 1 1 2 2 1 1 2 2 4 8 9 9 9 9 9 10 10 10 10
1 2 2 2 3 3 3 2 2 2 2 2 2 1 0 0 1 0 0 0 0 1 1 1 1 1 2 2 1 2 2 2 2 6 9 9 10 10 10 10 10 10 11
1 1 1 2 2 2 2 2 2 1 1 1 1 1 1 2 1 1 1 0 0 0 1 1 1 1 1 1 1 2 3 2 3 4 7 9 10 10 10 10 10 10 10
2 2 2 2 2 2 3 3 2 2 2 2 2 2 3 3 2 2 1 1 1 0 0 0 1 1 1 2 1 1 2 2 2 3 3 5 7 10 11 11 11 11 11
2 2 2 2 2 2 3 4 4 3 2 2 2 2 3 3 4 2 2 2 2 1 1 1 1 1 1 1 1 1 2 2 3 2 2 2 3 3 5 9 11 12 12
1 1 1 1 2 2 4 5 3 4 3 2 2 1 1 2 2 1 1 1 1 1 1 1 1 1 2 1 1 1 1 2 2 2 1 3 2 3 4 4 8 11 11
1 1 1 1 0 1 2 3 3 2 3 2 2 1 1 2 2 1 1 2 2 3 4 2 1 1 1 1 1 2 2 2 3 3 1 3 3 3 3 3 8 9 10
2 2 2 1 1 1 1 1 3 2 2 2 1 1 1 2 3 3 2 2 1 1 2 2 1 1 1 1 1 1 2 3 3 3 1 2 3 2 3 2 5 8 8
2 2 2 2 2 1 2 1 1 2 2 1 0 2 2 2 4 5 2 2 2 2 2 0 2 2 3 3 2 2 2 2 3 3 1 1 2 3 3 3 4 7 7
3 2 2 2 2 2 1 1 1 2 2 1 1 2 4 3 4 5 3 3 3 3 4 3 2 3 3 3 3 2 1 1 2 2 1 1 1 2 3 2 1 1 3
Wind_Direction
318 319 282 255 248 242 214 216 221 230 240 244 242 227 235 243 242 207 158 169 171 173 181 188 192 191 190 186 185 181 177 174 170 166 162 163 161 157 154 153 152 152 152
304 314 311 304 285 268 254 226 221 218 242 242 246 254 251 245 242 214 170 179 185 184 187 192 194 192 192 191 187 184 179 176 174 171 169 167 165 162 160 160 159 157 156
333 335 328 324 314 295 281 275 272 231 244 242 239 249 251 248 250 242 186 184 188 193 193 195 194 192 191 191 190 186 182 178 178 177 175 173 170 167 166 165 164 162 164
346 339 332 318 307 315 318 285 258 260 260 256 257 264 255 241 244 255 231 199 181 185 194 196 194 194 192 191 192 188 184 182 181 181 181 180 177 173 172 172 171 170 172
346 350 319 300 314 333 326 305 323 293 269 263 252 242 248 240 241 250 251 227 194 178 178 191 193 192 191 192 192 191 187 185 184 185 185 184 181 179 178 178 177 177 178
342 336 310 324 336 332 320 311 313 307 271 249 268 264 244 231 234 245 257 249 208 182 176 174 183 193 194 191 192 194 191 188 188 191 191 190 187 186 186 184 184 183 183
345 323 324 328 332 324 311 308 312 309 297 267 282 290 273 239 237 240 243 258 233 191 169 169 176 180 190 195 193 194 194 192 191 195 197 196 192 192 192 191 190 190 189
345 330 336 324 317 293 301 299 294 288 290 283 187 252 294 304 271 241 233 243 242 187 179 188 191 182 181 180 193 194 194 193 195 197 199 200 197 195 196 195 195 195 196
345 338 330 323 312 311 299 286 282 282 276 290 262 164 185 237 284 270 232 232 237 206 214 217 211 191 182 176 179 193 192 192 198 201 202 202 200 198 199 199 199 200 201
7 353 328 321 313 323 320 306 337 291 244 289 306 292 281 189 192 297 296 247 230 215 214 237 244 203 192 172 169 180 188 193 199 206 207 206 205 203 203 205 206 206 205
1 6 335 324 329 336 340 322 327 305 275 223 277 297 315 312 277 180 290 307 296 251 208 189 196 185 353 151 159 175 184 190 199 208 213 212 211 211 209 209 210 211 211
354 22 342 334 346 349 346 343 331 332 44 285 280 279 136 269 276 271 239 302 289 296 261 186 189 161 149 116 146 164 182 189 197 205 213 218 217 217 217 215 215 216 217
8 9 354 346 357 345 338 344 322 306 274 128 263 298 334 282 299 35 71 333 331 306 299 276 212 164 143 119 116 154 181 189 197 204 210 215 217 218 222 224 223 221 221
354 352 342 341 348 349 348 350 327 309 1 59 243 159 147 295 358 68 113 90 353 327 335 328 5 60 95 116 141 162 181 191 198 204 210 212 213 215 220 228 231 230 227
358 4 336 335 356 16 359 356 356 356 6 27 5 29 107 300 82 52 62 113 126 47 329 344 10 11 33 88 153 190 184 188 197 205 209 210 211 212 216 221 227 230 232
9 336 342 354 10 32 48 38 19 0 10 38 77 48 59 53 59 75 138 107 104 136 256 321 327 317 339 318 186 217 211 196 200 204 209 211 211 211 216 221 225 227 228
351 338 342 358 21 31 40 52 18 29 26 13 5 89 98 87 107 52 71 122 142 132 224 293 315 318 332 316 289 255 225 207 200 206 208 211 214 213 216 221 224 225 227
337 339 358 18 30 39 35 33 14 51 59 23 3 32 67 114 118 121 82 255 194 181 163 261 290 300 296 294 290 273 260 239 219 212 210 215 218 219 219 221 224 225 226
327 323 9 29 30 33 36 35 33 35 57 29 360 19 28 52 43 52 70 47 8 139 189 215 267 282 287 287 297 298 284 271 253 225 216 222 225 225 225 225 226 227 227
339 350 22 32 31 30 24 18 15 15 31 42 29 42 51 50 36 10 7 360 359 358 277 232 255 279 287 297 308 302 303 288 269 259 236 222 225 228 229 229 228 228 228
342 353 11 16 23 33 29 27 5 357 9 29 34 55 77 88 72 51 28 2 1 355 334 304 274 294 294 317 306 290 292 292 279 255 245 239 224 225 227 234 232 229 228
306 346 1 9 21 34 48 38 19 343 342 5 19 48 128 131 121 121 89 3 294 260 266 283 273 271 285 291 295 301 303 318 299 289 266 271 238 236 230 219 222 221 224
215 265 282 293 46 76 42 12 355 331 323 345 356 1 19 63 66 22 319 278 274 255 237 222 255 278 283 287 310 318 308 299 274 276 300 282 268 254 252 236 217 219 222
195 204 226 227 199 177 214 308 317 297 292 303 332 352 43 47 34 25 358 346 344 334 251 218 203 270 303 330 339 285 278 290 284 283 261 270 286 278 278 252 226 219 219
217 204 209 221 207 208 229 252 306 284 278 282 7 44 52 73 42 29 15 354 5 354 347 314 228 250 272 285 292 320 315 312 298 292 277 244 286 294 284 263 237 219 223
211 213 217 213 203 184 185 198 259 280 293 291 111 88 64 65 59 42 26 16 12 350 348 339 311 282 266 260 255 234 258 297 306 307 315 343 310 335 317 301 287 229 236